Regional Weather Roundup
Issued by NWS

Home | Current Version | Previous Version | Graphics & Text | Print | Product List | Glossary Off
Versions: 1 2 3 4 5 6 7 8 9 10 11 12 13 14 15 16 17 18 19 20 21 22 23 24 25 26 27 28 29 30 31 32 33 34 35 36 37 38 39 40 41 42 43 44 45 46 47 48 49 50

000
ASUS43 KTOP 220808
RWRKS

WEATHER ROUNDUP FOR KANSAS
NATIONAL WEATHER SERVICE GOODLAND KS
300 AM CDT SUN OCT 22 2017

NOTE:  "FAIR" INDICATES FEW OR NO CLOUDS BELOW 12,000 FEET WITH NO
SIGNIFICANT WEATHER AND/OR OBSTRUCTIONS TO VISIBILITY.

KSZ001>006-013>018-027>032-041>047-220900-
NORTHWEST KANSAS

CITY           SKY/WX    TMP DP  RH WIND       PRES   REMARKS
GOODLAND       CLEAR     34  20  56 W10       30.13S WCI  26
HILL CITY      CLOUDY    36  29  75 W8        30.12R
RUSSELL        CLEAR     39  39 100 W8        30.09R
$$

KSZ061>065-074>080-084>089-220900-
SOUTHWEST KANSAS

CITY           SKY/WX    TMP DP  RH WIND       PRES   REMARKS
DODGE CITY     CLEAR     37  30  75 W10       30.15R WCI  30
ELKHART          N/A     40  18  41 NW7         N/A
$$

KSZ066>073-081>083-090>101-220900-
SOUTHEAST KANSAS

CITY           SKY/WX    TMP DP  RH WIND       PRES   REMARKS
CHANUTE        LGT RAIN  52  50  93 N13       29.97F
COFFEYVILLE    CLOUDY    54  52  93 N10       29.98R
HUTCHINSON     PTCLDY    44  40  85 NW6       30.08R
PARSONS        LGT RAIN  53  51  93 NW7       29.99F
WICHITA INTL   CLOUDY    50  43  77 NW7       30.05F
WICHITA MCCONL PTCLDY    51  43  75 N7        30.04F
$$

KSZ007>012-019>026-033>040-048>060-102>105-220900-
NORTHEAST KANSAS

CITY           SKY/WX    TMP DP  RH WIND       PRES   REMARKS
EMPORIA        MOCLDY    50  46  86 NW6       30.02R
LAWRENCE       CLOUDY    51  49  92 W8        30.04R
MANHATTAN      CLOUDY    49  44  83 CALM      30.04R
OLATHE IND     RAIN      50  47  89 NE16G26   29.96F
OLATHE EXE     RAIN      49  48  97 NE9       29.98S
SALINA         MOCLDY    49  42  77 NW6       30.06R
TOPEKA BILLARD CLOUDY    51  50  96 CALM      30.02R
TOPEKA FORBES  MOCLDY    52  49  89 W3        30.03R
$$



USA.gov is the U.S. government's official web portal to all federal, state and local government web resources and services.